STARLINK-37044, 68247

Orbit data source: Space-Track

STARLINK-37044, 68247 is a payload satellite owned by SpaceX/Seattle (US) in LEO that was launched on Tue, 17 Mar 2026 UTC via an FALCON 9 launch vehicle from the Air Force Eastern Test Range (AFETR). Payload-class satellites include a variety of spacecraft equipped with specific instruments for various scientific and technological missions. These include communications satellites like Starlink; space stations such as the ISS; scientific satellites like the Hubble; Earth observation satellites from companies like Planet Labs, Umbra, and HawkEye 360; GPS; miniature CubeSats for education and research; and military/defense satellites.

Loading next visibility...
Identifier
68247, 2026-054R
Orbit
LEO
Country
Flag of USUS
Related business
Manufacturer
SpaceX/Seattle
Mission
Operational spacecraft
Bus & Motor
STARLINK V2MO, Unknown motor
Mass
575 kg wet, ~530 kg dry
Launch date (UTC)
2026-03-17 (2 months ago)
Launch vehicle
FALCON 9
Launch site
Air Force Eastern Test Range (AFETR)
Object type
Payload
Rocket body
Debris
Shape & HBR
Unknown shape, 17.7 m
Radar Cross Section
RCS unknown

Expand to show TLE details & history
Last TLE update: 14 hours ago

TLE from 14 hours ago
0 STARLINK-37044
1 68247U 26054R   26145.15435876  .00054866  00000-0  98596-3 0  9990
2 68247  53.1586 297.8260 0000889 114.1122 245.9980 15.49357185 10756
Epoch: 2026-05-25T03:42Z
TLE epoch observation values (Epoch: 2026-05-25T03:42:16.596Z)
Latitude
-0.00005°
Longitude
-0.48941°
Altitude
419.758 km
Speed
7.66 km/s
True Right ascension
19h 51m 18s
True Declination
0° 00' 00"
Sunlit
Object was in full shadow at epoch
Visualization orbit readout
Latitude
Unknown
Longitude
Unknown
Altitude
Unknown
Speed
Unknown
Apparent Right ascension
Unknown
Apparent Declination
Unknown
Sunlit
N/A
Visualization observer readout
Local Sidereal Time
03:03:46
Azimuth
Unknown
Elevation
Unknown
Doppler factor
Unknown
Orbital elements
Apogee altitude
419.468 km
Perigee altitude
418.26 km
Semi-major axis
6,797.001 km
Eccentricity
0.00009
Inclination
53.1586°
RAAN
297.826°
Arg. of periapsis
114.1122°
True anomaly
245.98869°
Mean anomaly
245.998°
Eccentric anomaly
245.99335°
Mean motion
3.87318 °/min
Orbital period
92.95 mins
BSTAR
0.00098596
Loading maneuver chart data...
Computing Atmospheric mass density...
Loading historical data...
Loading historical data...
Loading historical data...
Loading historical data...
Loading historical data...
Loading historical data...
Loading historical data...

Documentation

Showing up to 5 results
|